Weather reports worldwide

Advertisment
London/Heathrow Intl, United Kingdom (3772): temperature & dewpoint: 23.04.2017 06:00:00 - 29.04.2017 06:00:00 (BST)London/Heathrow Intl, United Kingdom (3772): wind speed: 23.04.2017 06:00:00 - 29.04.2017 06:00:00 (BST)London/Heathrow Intl, United Kingdom (3772): wind direction: 23.04.2017 06:00:00 - 29.04.2017 06:00:00 (BST)London/Heathrow Intl, United Kingdom (3772): reduced air pressure: 23.04.2017 06:00:00 - 29.04.2017 06:00:00 (BST)London/Heathrow Intl, United Kingdom (3772): visibility: 23.04.2017 06:00:00 - 29.04.2017 06:00:00 (BST)London/Heathrow Intl, United Kingdom (3772): sunshine duration: 23.04.2017 06:00:00 - 29.04.2017 06:00:00 (BST)London/Heathrow Intl, United Kingdom (3772): precipitation: 23.04.2017 06:00:00 - 29.04.2017 06:00:00 (BST)
Date & Time tt [°C] td [°C] ff [km/h] ff [kn] dd ppp [hPa] vv [km] sd [min] rr [mm]
29.04.2017 06:00:00 5,8 4,1 2 1 - 1016,6 10 0 0,0
29.04.2017 05:00:00 5,4 2,8 5 3 WSW 1016,6 10 0 0,0
29.04.2017 04:00:00 6,9 3,4 8 4 W 1016,5 10 0 0,0
29.04.2017 03:00:00 7,3 3,7 5 3 W 1016,6 10 0 0,0
29.04.2017 02:00:00 7,8 4,3 9 5 W 1016,6 10 0 0,0
29.04.2017 01:00:00 10,1 5,1 13 7 W 1016,8 10 - 0,0
29.04.2017 00:00:00 10,4 5,9 9 5 W 1016,9 10 0 0,0
28.04.2017 23:00:00 11,7 5,7 9 5 SW 1016,8 10 0 0,0
28.04.2017 22:00:00 11,9 4,9 2 1 - 1016,8 10 0 0,0
28.04.2017 21:00:00 12,0 4,9 5 3 WNW 1016,6 10 0 0,0
28.04.2017 20:00:00 12,4 4,8 5 3 - 1016,4 10 0 0,0
28.04.2017 19:00:00 12,7 4,7 9 5 WNW 1016,3 10 0 0,0
28.04.2017 18:00:00 13,2 3,2 11 6 W 1016,4 10 6 0,0
28.04.2017 17:00:00 14,0 3,2 4 2 - 1016,4 10 36 0,0
28.04.2017 16:00:00 14,2 4,2 8 4 WSW 1016,5 10 18 0,0
28.04.2017 15:00:00 12,6 4,3 5 3 - 1016,9 10 0 0,0
28.04.2017 14:00:00 12,4 4,4 9 5 - 1017,0 10 12 0,0
28.04.2017 13:00:00 10,6 4,7 8 4 W 1017,2 10 0 0,0
28.04.2017 12:00:00 10,8 3,8 5 3 - 1017,4 10 0 0,0
28.04.2017 11:00:00 10,5 4,0 8 4 NNW 1017,5 10 0 0,0
28.04.2017 10:00:00 9,7 4,5 8 4 NNW 1017,4 10 6 0,0
28.04.2017 09:00:00 9,6 6,8 8 4 NNW 1017,4 9 6 0,0
28.04.2017 08:00:00 8,6 6,5 5 3 - 1017,1 10 0 0,0
28.04.2017 07:00:00 7,7 5,8 8 4 WNW 1017,0 10 0 0,0
28.04.2017 06:00:00 7,5 5,6 5 3 WNW 1016,8 10 0 0,0
28.04.2017 05:00:00 7,5 5,4 8 4 WNW 1016,7 10 0 0,0
28.04.2017 04:00:00 7,4 5,2 5 3 WNW 1016,6 10 0 0,0
28.04.2017 03:00:00 7,6 4,8 9 5 WNW 1016,7 10 0 0,0
28.04.2017 02:00:00 7,4 4,5 9 5 WNW 1016,9 10 0 0,0
28.04.2017 01:00:00 8,0 4,6 11 6 WNW 1017,0 10 - 0,0
28.04.2017 00:00:00 8,0 5,5 9 5 W 1017,1 10 0 0,0
27.04.2017 23:00:00 8,5 5,7 13 7 WNW 1017,1 10 0 0,0
27.04.2017 22:00:00 8,3 5,8 13 7 W 1017,3 10 0 0,0
27.04.2017 21:00:00 8,5 5,7 15 8 W 1017,0 10 0 0,0
27.04.2017 20:00:00 8,7 5,8 16 9 W 1016,9 10 0 0,0
27.04.2017 19:00:00 8,8 5,9 13 7 W 1017,1 10 0 0,2
27.04.2017 18:00:00 10,1 4,4 13 7 WNW 1017,3 10 0 0,0
27.04.2017 17:00:00 10,6 3,3 13 7 W 1017,4 10 0 0,0
27.04.2017 16:00:00 10,6 2,2 18 10 W 1017,9 10 0 0,0
27.04.2017 15:00:00 10,5 1,6 16 9 WNW 1018,4 10 0 0,0
27.04.2017 14:00:00 10,7 0,3 18 10 WNW 1018,7 10 0 0,0
27.04.2017 13:00:00 10,4 -0,4 13 7 NW 1019,1 10 6 0,0
27.04.2017 12:00:00 10,5 -1,6 16 9 WNW 1019,5 10 36 0,0
27.04.2017 11:00:00 9,8 -3,9 16 9 WNW 1020,0 10 54 0,0
27.04.2017 10:00:00 8,0 1,0 15 8 W 1020,4 10 60 0,0
27.04.2017 09:00:00 6,7 2,3 9 5 W 1020,6 10 60 0,0
27.04.2017 08:00:00 4,4 1,7 9 5 W 1020,7 10 60 0,0
27.04.2017 07:00:00 2,2 1,1 8 4 W 1020,7 7 18 0,0
27.04.2017 06:00:00 1,4 0,5 5 3 W 1020,6 9 0 0,0
27.04.2017 05:00:00 0,8 -0,4 9 5 W 1020,7 9 0 0,0
27.04.2017 04:00:00 1,5 0,1 5 3 NW 1020,6 10 0 0,0
27.04.2017 03:00:00 2,0 0,2 4 2 NNW 1020,8 10 0 0,0
27.04.2017 02:00:00 2,6 0,7 4 2 - 1021,0 10 0 0,0
27.04.2017 01:00:00 2,6 0,6 4 2 NW 1021,2 10 - 0,0
27.04.2017 00:00:00 3,6 0,8 4 2 - 1021,1 10 0 0,0
26.04.2017 23:00:00 5,0 0,7 5 3 - 1021,0 10 0 0,0
26.04.2017 22:00:00 5,7 0,8 9 5 N 1020,8 10 0 0,0
26.04.2017 21:00:00 5,7 0,8 5 3 - 1020,4 10 0 0,0
26.04.2017 20:00:00 6,6 0,5 13 7 NE 1020,0 10 24 0,0
26.04.2017 19:00:00 7,2 0,7 9 5 NNW 1019,4 10 12 0,0
26.04.2017 18:00:00 7,8 1,4 16 9 N 1019,1 10 48 0,0
26.04.2017 17:00:00 8,8 2,4 16 9 NNE 1018,7 10 36 0,0
26.04.2017 16:00:00 7,3 3,1 11 6 ENE 1018,5 10 6 1,4
26.04.2017 15:00:00 11,0 0,4 13 7 NNE 1017,9 10 60 0,0
26.04.2017 14:00:00 7,6 2,1 13 7 NNW 1018,4 10 12 0,0
26.04.2017 13:00:00 8,0 0,4 21 11 NNW 1018,3 10 24 0,0
26.04.2017 12:00:00 9,7 1,0 16 9 NNE 1018,1 10 42 0,0
26.04.2017 11:00:00 8,9 0,7 18 10 N 1018,0 10 36 0,0
26.04.2017 10:00:00 7,0 0,8 16 9 N 1017,9 10 6 0,0
26.04.2017 09:00:00 6,0 1,6 13 7 N 1017,8 10 0 0,2
26.04.2017 08:00:00 4,9 1,3 13 7 N 1017,6 10 0 0,0
26.04.2017 07:00:00 3,8 0,9 8 4 N 1017,1 10 0 0,0
26.04.2017 06:00:00 3,1 0,7 9 5 NNW 1016,5 10 0 0,0
26.04.2017 05:00:00 2,6 0,6 8 4 N 1016,4 10 0 0,0
26.04.2017 04:00:00 2,7 0,3 8 4 NNW 1016,2 10 0 0,0
26.04.2017 03:00:00 2,5 0,4 9 5 NNW 1016,2 10 0 0,0
26.04.2017 02:00:00 2,5 0,5 4 2 - 1016,3 10 0 0,0
26.04.2017 01:00:00 2,7 0,2 9 5 NW 1016,5 10 - 0,0
26.04.2017 00:00:00 2,9 0,4 11 6 NW 1016,2 10 0 0,0
25.04.2017 23:00:00 3,6 1,0 8 4 NNW 1016,1 10 0 0,0
25.04.2017 22:00:00 3,7 0,7 8 4 NW 1015,6 10 0 0,0
25.04.2017 21:00:00 4,6 0,3 9 5 NW 1015,1 10 0 0,0
25.04.2017 20:00:00 6,0 0,7 11 6 N 1014,6 10 0 0,0
25.04.2017 19:00:00 7,7 0,4 21 11 NNE 1014,0 10 48 0,0
25.04.2017 18:00:00 9,5 -3,7 11 6 N 1013,4 10 36 0,0
25.04.2017 17:00:00 8,7 -2,9 21 11 NW 1013,6 10 24 0,0
25.04.2017 16:00:00 11,4 -4,2 13 7 N 1013,5 10 36 0,0
25.04.2017 15:00:00 9,9 -5,7 15 8 N 1013,9 10 30 0,0
25.04.2017 14:00:00 9,4 -5,4 15 8 NNW 1014,3 10 30 0,0
25.04.2017 13:00:00 9,3 -5,9 11 6 NNW 1014,3 10 36 0,0
25.04.2017 12:00:00 9,2 -3,9 13 7 NW 1014,4 10 48 0,0
25.04.2017 11:00:00 7,9 -3,9 15 8 N 1014,4 10 60 0,0
25.04.2017 10:00:00 6,6 -3,6 11 6 N 1014,5 10 60 0,0
25.04.2017 09:00:00 5,5 -2,0 11 6 NNW 1014,4 10 60 0,0
25.04.2017 08:00:00 4,1 -2,1 15 8 NW 1014,2 10 60 0,0
25.04.2017 07:00:00 3,0 -3,4 15 8 WNW 1013,8 10 12 0,0
25.04.2017 06:00:00 1,2 -3,2 16 9 W 1013,4 10 0 0,0
25.04.2017 05:00:00 0,5 -3,9 13 7 W 1013,2 10 0 0,0
25.04.2017 04:00:00 2,6 -3,5 11 6 WNW 1013,3 10 0 0,0
25.04.2017 03:00:00 3,1 -3,5 13 7 WNW 1013,4 10 0 0,0
25.04.2017 02:00:00 3,7 -4,2 11 6 WNW 1013,5 10 0 0,0
25.04.2017 01:00:00 4,6 -4,5 15 8 WNW 1013,9 10 - 0,0
25.04.2017 00:00:00 5,7 -5,4 16 9 WNW 1013,9 10 0 0,0
24.04.2017 23:00:00 6,7 -5,2 16 9 NW 1013,6 10 0 0,0
24.04.2017 22:00:00 8,7 -2,0 11 6 NW 1013,3 10 0 0,0
24.04.2017 21:00:00 9,4 0,2 21 11 NW 1013,2 10 0 0,0
24.04.2017 20:00:00 10,0 4,8 16 9 NW 1012,6 10 0 0,0
24.04.2017 19:00:00 10,3 5,3 11 6 NW 1012,7 10 0 0,0
24.04.2017 18:00:00 12,3 5,9 22 12 W 1012,2 10 0 0,0
24.04.2017 17:00:00 13,0 6,5 21 11 W 1012,5 10 0 0,0
24.04.2017 16:00:00 12,7 7,1 16 9 W 1013,1 10 0 0,0
24.04.2017 15:00:00 13,2 7,1 21 11 W 1013,9 10 0 0,0
24.04.2017 14:00:00 12,9 7,7 16 9 W 1014,8 10 0 0,0
24.04.2017 13:00:00 11,3 8,2 18 10 W 1015,9 8 0 0,2
24.04.2017 12:00:00 12,7 6,2 15 8 W 1016,3 10 0 0,0
24.04.2017 11:00:00 11,2 7,1 15 8 WNW 1017,1 10 0 0,0
24.04.2017 10:00:00 12,0 5,7 13 7 WNW 1017,4 10 18 0,0
24.04.2017 09:00:00 11,0 6,4 13 7 W 1017,7 10 42 0,0
24.04.2017 08:00:00 8,7 5,4 11 6 W 1018,3 10 42 0,0
24.04.2017 07:00:00 6,8 5,1 11 6 W 1018,5 10 18 0,0
24.04.2017 06:00:00 5,5 3,6 8 4 W 1018,8 10 0 0,0
24.04.2017 05:00:00 7,2 5,2 9 5 W 1019,2 10 0 0,0
24.04.2017 04:00:00 6,8 5,6 4 2 SW 1019,6 10 0 0,0
24.04.2017 03:00:00 7,3 5,5 8 4 SSW 1020,2 9 0 0,0
24.04.2017 02:00:00 7,3 5,3 9 5 WSW 1021,0 7 0 0,0
24.04.2017 01:00:00 8,5 6,4 5 3 SW 1021,5 7 - 0,0
24.04.2017 00:00:00 9,0 6,7 9 5 SSW 1022,0 7 0 0,0
23.04.2017 23:00:00 9,7 6,8 15 8 SSW 1022,4 8 0 0,0
23.04.2017 22:00:00 10,8 6,8 16 9 SSW 1022,9 10 0 0,0
23.04.2017 21:00:00 12,1 6,6 16 9 SSW 1023,0 10 0 0,0
23.04.2017 20:00:00 13,8 2,6 13 7 W 1022,9 10 48 0,0
23.04.2017 19:00:00 15,2 2,5 8 4 WNW 1023,3 10 48 0,0
23.04.2017 18:00:00 15,2 2,7 13 7 WNW 1023,7 10 48 0,0
23.04.2017 17:00:00 15,9 1,5 15 8 W 1024,0 10 60 0,0
23.04.2017 16:00:00 15,9 2,4 15 8 W 1024,5 10 60 0,0
23.04.2017 15:00:00 15,9 2,2 16 9 W 1025,1 10 42 0,0
23.04.2017 14:00:00 15,0 1,8 8 4 SSW 1025,6 10 42 0,0
23.04.2017 13:00:00 13,4 4,2 11 6 SSW 1026,4 10 24 0,0
23.04.2017 12:00:00 12,1 5,6 13 7 W 1027,1 10 24 0,0
23.04.2017 11:00:00 13,0 5,7 15 8 SW 1027,5 10 54 0,0
23.04.2017 10:00:00 10,6 5,1 11 6 S 1027,8 10 6 0,0
23.04.2017 09:00:00 9,6 3,8 8 4 SSE 1028,1 10 0 0,0
23.04.2017 08:00:00 8,6 3,0 9 5 ESE 1028,1 10 0 0,0
23.04.2017 07:00:00 8,3 2,8 8 4 SSE 1027,9 10 0 0,0
23.04.2017 06:00:00 8,0 2,5 8 4 SE 1027,7 10 0 0,0

tt = temperature
td = dewpoint
ff = wind speed
dd = wind direction
ppp = reduced air pressure
vv = visibility
sd = sunshine duration
rr = precipitation

Next stations